This demonstration page uses our WeatherBlox Daily Observations layout. Learn more.

Hourly Observations for August 19, 2019

Temp ( °F °C ) Dew Point ( °F °C ) Humidity (%) Winds ( mph kmh ) Pressure ( in mb ) Visibility ( mi km ) Precip ( " mm )
12:53 am 00:53 Clear 66 18.9 63 17.2 90 90 E 6 9 29.94 1014 10 16.09344 0 0
1:53 am 01:53 Clear 66 18.9 64 17.8 93 93 E 5 7 29.94 1014 10 16.09344 0 0
2:53 am 02:53 Clear 66 18.9 64 17.8 93 93 E 5 7 29.94 1014 9 14.484096 0 0
3:53 am 03:53 Clear with Mist and Fog 64 17.8 62 16.7 93 93 ENE 3 6 29.94 1014 6 9.656064 0 0
4:53 am 04:53 Clear 65 18.3 63 17.2 93 93 E 6 9 29.97 1015 8 12.874752 0 0
5:53 am 05:53 Clear with Mist and Fog 66 18.9 64 17.8 93 93 ESE 6 9 29.97 1015 5 8.04672 0 0
6:53 am 06:53 Sunny with Mist and Fog 66 18.9 64 17.8 93 93 ESE 9 15 29.94 1014 4 6.437376 0 0
7:53 am 07:53 Sunny with Mist and Fog 67 19.4 65 18.3 93 93 ESE 8 13 29.97 1015 5 8.04672 0 0
8:53 am 08:53 Sunny 70 21.1 65 18.3 84 84 SE 8 13 29.97 1015 8 12.874752 0 0
9:53 am 09:53 Sunny 74 23.3 68 20 82 82 SE 13 20 29.94 1014 10 16.09344 0 0
10:53 am 10:53 Sunny 78 25.6 70 21.1 76 76 SE 9 15 29.94 1014 10 16.09344 0 0
11:53 am 11:53 Sunny 81 27.2 72 22.2 74 74 SE 12 19 29.94 1014 10 16.09344 0 0
12:53 pm 12:53 Partly Cloudy 83 28.3 75 23.9 77 77 SSE 13 20 29.91 1013 10 16.09344 0 0
1:01 pm 13:01 Mostly Cloudy 84 28.9 74 23.3 72 72 SSE 12 19 29.88 1012 10 16.09344 0 0
1:53 pm 13:53 Cloudy 85 29.4 75 23.9 72 72 SE 10 17 29.91 1013 10 16.09344 0 0
2:53 pm 14:53 Partly Cloudy 86 30 76 24.4 72 72 SSE 10 17 29.88 1012 10 16.09344 0 0
3:53 pm 15:53 Sunny 87 30.6 75 23.9 67 67 SSE 13 20 29.88 1012 10 16.09344 0 0
4:53 pm 16:53 Sunny 89 31.7 76 24.4 65 65 SSE 15 24 29.85 1011 10 16.09344 0 0
5:53 pm 17:53 Sunny 88 31.1 77 25 70 70 SE 13 20 29.85 1011 10 16.09344 0 0
6:53 pm 18:53 Sunny 87 30.6 77 25 72 72 SE 10 17 29.83 1010 10 16.09344 0 0
7:53 pm 19:53 Sunny 85 29.4 78 25.6 80 80 SSE 9 15 29.85 1011 10 16.09344 0 0
8:53 pm 20:53 Clear 83 28.3 78 25.6 85 85 SE 3 6 29.85 1011 10 16.09344 0 0
9:53 pm 21:53 Clear 81 27.2 78 25.6 91 91 SE 6 9 29.85 1011 10 16.09344 0 0
10:53 pm 22:53 Clear 81 27.2 77 25 88 88 SE 7 11 29.88 1012 10 16.09344 0 0
11:53 pm 23:53 Clear 80 26.7 76 24.4 87 87 SE 7 11 29.85 1011 10 16.09344 0 0

Powered by AerisWeather